User: anonymous   Login
Location: Boiro
(42.6475°N, 8.8834°W)
Time: 06:42:45
(UTC+01:00)
Language:

CUBESAT XI-V - Orbit

View from above orbital plane
View from above orbital plane
View from above satellite
View from above satellite

Ground track
Ground track

The orbit data is extracted from the following two-line orbital elements,

1 28895U 05043F   22026.58134764  .00000406  00000-0  86273-4 0  9994
2 28895  98.0847 160.3678 0015895 224.6551 135.3372 14.64065547866651
Epoch (UTC): 26 January 2022 13:57:08
Eccentricity: 0.0015895
inclination: 98.0847°
perigee height: 669 km
apogee height: 691 km
right ascension of ascending node: 160.3678°
argument of perigee: 224.6551°
revolutions per day: 14.64065547
mean anomaly at epoch: 135.3372°
orbit number at epoch: 86665

The dashed part of the orbit path shows where the satellite is in the earth's shadow,  

DLR